Hourly Weather Holovashivka

Today, 11 April, Sunday

Time Temperature Precipitation Wind Pressure Humidity
00:00 +6°C° 0 mm 2 mps 754 mmHg 58%
01:00 +5°C° 0 mm 2 mps 754 mmHg 59%
02:00 +5°C° 0 mm 2 mps 754 mmHg 60%
03:00 +4°C° 0 mm 2 mps 754 mmHg 61%
04:00 +4°C° 0 mm 2 mps 754 mmHg 62%
05:00 +3°C° 0 mm 3 mps 755 mmHg 63%
06:00 +4°C° 0 mm 3 mps 755 mmHg 58%
07:00 +7°C° 0 mm 3 mps 755 mmHg 53%
08:00 +7°C° 0 mm 4 mps 755 mmHg 49%
09:00 +10°C° 0 mm 4 mps 755 mmHg 45%
10:00 +10°C° 0 mm 5 mps 755 mmHg 40%
11:00 +12°C° 0 mm 5 mps 755 mmHg 36%
12:00 +13°C° 0 mm 5 mps 755 mmHg 34%
13:00 +13°C° 0 mm 5 mps 754 mmHg 33%
14:00 +14°C° 0 mm 6 mps 754 mmHg 32%
15:00 +14°C° 0 mm 5 mps 754 mmHg 34%
16:00 +13°C° 0 mm 5 mps 754 mmHg 36%
17:00 +13°C° 0 mm 5 mps 754 mmHg 39%
18:00 +12°C° 0 mm 5 mps 754 mmHg 42%
19:00 +10°C° 0 mm 5 mps 754 mmHg 46%
20:00 +10°C° 0 mm 4 mps 754 mmHg 50%
21:00 +8°C° 0 mm 4 mps 754 mmHg 52%
22:00 +7°C° 0 mm 4 mps 753 mmHg 54%
23:00 +7°C° 0 mm 4 mps 753 mmHg 56%

Tomorrow, 12 April, Monday

Time Temperature Precipitation Wind Pressure Humidity
00:00 +7°C° 0 mm 5 mps 753 mmHg 59%
01:00 +7°C° 0 mm 5 mps 753 mmHg 62%
02:00 +7°C° 0 mm 5 mps 753 mmHg 64%
03:00 +6°C° 0 mm 5 mps 752 mmHg 70%
04:00 +6°C° 0 mm 4 mps 752 mmHg 75%
05:00 +6°C° 0 mm 4 mps 752 mmHg 80%
06:00 +7°C° 0 mm 5 mps 752 mmHg 80%
07:00 +8°C° 0 mm 5 mps 752 mmHg 81%
08:00 +9°C° 0 mm 5 mps 752 mmHg 81%
09:00 +12°C° 0 mm 5 mps 751 mmHg 74%
10:00 +14°C° 0 mm 5 mps 751 mmHg 67%
11:00 +16°C° 0 mm 5 mps 751 mmHg 60%
12:00 +17°C° 0 mm 5 mps 750 mmHg 54%
13:00 +20°C° 0 mm 5 mps 750 mmHg 48%
14:00 +21°C° 0 mm 5 mps 750 mmHg 43%
15:00 +21°C° 0 mm 5 mps 750 mmHg 42%
16:00 +21°C° 0 mm 5 mps 749 mmHg 42%
17:00 +21°C° 0 mm 4 mps 749 mmHg 42%
18:00 +19°C° 0 mm 4 mps 750 mmHg 46%
19:00 +18°C° 0 mm 4 mps 750 mmHg 51%
20:00 +16°C° 0 mm 3 mps 750 mmHg 55%
21:00 +14°C° 0 mm 3 mps 750 mmHg 60%
22:00 +13°C° 0 mm 3 mps 750 mmHg 66%
23:00 +13°C° 0 mm 3 mps 750 mmHg 71%

Day after tomorrow, 13 April, Tuesday

Time Temperature Precipitation Wind Pressure Humidity
00:00 +12°C° 0 mm 3 mps 750 mmHg 74%
01:00 +11°C° 0 mm 3 mps 750 mmHg 77%
02:00 +12°C° 0 mm 2 mps 750 mmHg 81%
03:00 +12°C° 0 mm 2 mps 750 mmHg 81%
04:00 +12°C° 0 mm 2 mps 750 mmHg 81%
05:00 +12°C° 0 mm 2 mps 750 mmHg 81%
06:00 +12°C° 0 mm 3 mps 750 mmHg 77%
07:00 +12°C° 0 mm 4 mps 750 mmHg 73%
08:00 +13°C° 0 mm 5 mps 750 mmHg 69%
09:00 +15°C° 0 mm 5 mps 750 mmHg 63%
10:00 +16°C° 0 mm 5 mps 750 mmHg 57%
11:00 +17°C° 0 mm 5 mps 750 mmHg 51%
12:00 +17°C° 0 mm 5 mps 750 mmHg 51%
13:00 +17°C° 0 mm 5 mps 750 mmHg 50%
14:00 +17°C° 0 mm 5 mps 750 mmHg 50%
15:00 +17°C° 0 mm 5 mps 750 mmHg 53%
16:00 +17°C° 0 mm 4 mps 749 mmHg 57%
17:00 +15°C° 0 mm 4 mps 749 mmHg 60%
18:00 +14°C° 0 mm 3 mps 750 mmHg 65%
19:00 +13°C° 0 mm 3 mps 750 mmHg 69%
20:00 +12°C° 0 mm 3 mps 750 mmHg 74%
21:00 +13°C° 0 mm 2 mps 750 mmHg 75%
22:00 +13°C° 0 mm 2 mps 750 mmHg 76%
23:00 +13°C° 0 mm 1 mps 749 mmHg 77%

14 April, Wednesday

Time Temperature Precipitation Wind Pressure Humidity
00:00 +13°C° 0 mm 1 mps 749 mmHg 77%
01:00 +12°C° 0 mm 1 mps 749 mmHg 78%
02:00 +12°C° 0 mm 1 mps 749 mmHg 79%
03:00 +12°C° 0 mm 1 mps 749 mmHg 80%
04:00 +12°C° 0 mm 2 mps 749 mmHg 82%
05:00 +10°C° 0 mm 2 mps 748 mmHg 84%
06:00 +12°C° 0 mm 2 mps 748 mmHg 80%
07:00 +13°C° 0 mm 2 mps 748 mmHg 76%
08:00 +14°C° 0 mm 2 mps 748 mmHg 71%
09:00 +13°C° 0.4 mm 2 mps 748 mmHg 75%
10:00 +12°C° 0.4 mm 3 mps 748 mmHg 79%
11:00 +12°C° 0.4 mm 3 mps 748 mmHg 83%
12:00 +12°C° 0.2 mm 3 mps 747 mmHg 81%
13:00 +12°C° 0.2 mm 3 mps 747 mmHg 78%
14:00 +13°C° 0.2 mm 4 mps 747 mmHg 76%
15:00 +12°C° 0.1 mm 3 mps 747 mmHg 77%
16:00 +12°C° 0.1 mm 3 mps 747 mmHg 78%
17:00 +13°C° 0.1 mm 2 mps 747 mmHg 79%
18:00 +13°C° 0 mm 2 mps 747 mmHg 80%
19:00 +12°C° 0 mm 1 mps 747 mmHg 82%
20:00 +11°C° 0 mm 1 mps 747 mmHg 84%
21:00 +11°C° 0 mm 1 mps 747 mmHg 82%
22:00 +11°C° 0 mm 1 mps 746 mmHg 81%
23:00 +11°C° 0 mm 1 mps 746 mmHg 79%

15 April, Thursday

Time Temperature Precipitation Wind Pressure Humidity
00:00 +11°C° 0 mm 1 mps 746 mmHg 79%
01:00 +11°C° 0 mm 1 mps 746 mmHg 79%
02:00 +11°C° 0 mm 1 mps 746 mmHg 79%
03:00 +11°C° 0 mm 1 mps 746 mmHg 81%
04:00 +10°C° 0 mm 1 mps 746 mmHg 82%
05:00 +9°C° 0 mm 0 mps 746 mmHg 83%
06:00 +10°C° 0 mm 0 mps 746 mmHg 78%
07:00 +12°C° 0 mm 0 mps 746 mmHg 73%
08:00 +14°C° 0 mm 1 mps 746 mmHg 68%
09:00 +15°C° 0 mm 1 mps 745 mmHg 63%
10:00 +16°C° 0 mm 1 mps 745 mmHg 57%
11:00 +17°C° 0 mm 2 mps 745 mmHg 51%
12:00 +18°C° 0 mm 2 mps 745 mmHg 48%
13:00 +18°C° 0 mm 2 mps 744 mmHg 45%
14:00 +19°C° 0 mm 3 mps 744 mmHg 42%
15:00 +18°C° 0.1 mm 3 mps 744 mmHg 47%
16:00 +17°C° 0.1 mm 2 mps 744 mmHg 52%
17:00 +16°C° 0.1 mm 2 mps 743 mmHg 57%
18:00 +16°C° 0.1 mm 2 mps 743 mmHg 60%
19:00 +15°C° 0.1 mm 2 mps 743 mmHg 64%
20:00 +14°C° 0.1 mm 2 mps 743 mmHg 67%
21:00 +14°C° 0.2 mm 2 mps 743 mmHg 72%
22:00 +13°C° 0.2 mm 2 mps 743 mmHg 76%
23:00 +13°C° 0.2 mm 2 mps 743 mmHg 81%

16 April, Friday

Time Temperature Precipitation Wind Pressure Humidity
00:00 +12°C° 0.1 mm 2 mps 743 mmHg 82%
01:00 +12°C° 0.1 mm 2 mps 743 mmHg 82%
02:00 +12°C° 0.1 mm 2 mps 743 mmHg 83%
03:00 +10°C° 0 mm 2 mps 743 mmHg 84%
04:00 +10°C° 0 mm 2 mps 743 mmHg 85%
05:00 +10°C° 0 mm 2 mps 743 mmHg 86%
06:00 +10°C° 0 mm 3 mps 743 mmHg 81%
07:00 +11°C° 0 mm 3 mps 743 mmHg 76%
08:00 +12°C° 0 mm 3 mps 744 mmHg 71%
09:00 +13°C° 0.3 mm 4 mps 744 mmHg 68%
10:00 +13°C° 0.3 mm 4 mps 744 mmHg 65%
11:00 +14°C° 0.3 mm 5 mps 744 mmHg 61%
12:00 +14°C° 0.1 mm 5 mps 744 mmHg 60%
13:00 +14°C° 0.1 mm 5 mps 744 mmHg 58%
14:00 +14°C° 0.1 mm 5 mps 744 mmHg 57%
15:00 +13°C° 0 mm 4 mps 744 mmHg 58%
16:00 +12°C° 0 mm 4 mps 745 mmHg 59%
17:00 +12°C° 0 mm 3 mps 745 mmHg 60%
18:00 +11°C° 0 mm 3 mps 746 mmHg 65%
19:00 +10°C° 0 mm 2 mps 746 mmHg 70%
20:00 +10°C° 0 mm 1 mps 746 mmHg 75%
21:00 +10°C° 0 mm 1 mps 747 mmHg 76%
22:00 +10°C° 0 mm 1 mps 747 mmHg 77%
23:00 +10°C° 0 mm 1 mps 747 mmHg 78%
Show more